When you browse on this site, cookies collect data to enhance your experience and personalize the content and advertising you see.
Visit our Privacy Policy to learn more. By continuing to use the site, you agree to this use of cookies and data.
  • In Spain
  • List of Countries
  • For 7 days
  • Water Temperature
  • Satellite Maps
  • Weather Map
  • Weather Widgets
  • user-avatar
    Login

    Hourly Weather Kerewan

    Today, 21 November, Wednesday

    Time Temperature Precipitation Wind Pressure Humidity
    00:00 +28°C° 0 mm 1 mps 758 mmHg 44%
    01:00 +27°C° 0 mm 2 mps 758 mmHg 43%
    02:00 +27°C° 0 mm 2 mps 757 mmHg 43%
    03:00 +27°C° 0 mm 2 mps 757 mmHg 43%
    04:00 +26°C° 0 mm 2 mps 758 mmHg 43%
    05:00 +26°C° 0 mm 3 mps 758 mmHg 39%
    06:00 +27°C° 0 mm 3 mps 758 mmHg 38%
    07:00 +28°C° 0 mm 4 mps 758 mmHg 36%
    08:00 +29°C° 0 mm 4 mps 759 mmHg 34%
    09:00 +33°C° 0 mm 4 mps 759 mmHg 30%
    10:00 +35°C° 0 mm 4 mps 758 mmHg 26%
    11:00 +37°C° 0 mm 5 mps 758 mmHg 23%
    12:00 +38°C° 0 mm 4 mps 758 mmHg 22%
    13:00 +39°C° 0 mm 3 mps 757 mmHg 22%
    14:00 +40°C° 0 mm 2 mps 756 mmHg 21%
    15:00 +39°C° 0 mm 2 mps 756 mmHg 24%
    16:00 +38°C° 0 mm 2 mps 756 mmHg 26%
    17:00 +37°C° 0 mm 2 mps 756 mmHg 28%
    18:00 +35°C° 0 mm 2 mps 756 mmHg 32%
    19:00 +34°C° 0 mm 3 mps 757 mmHg 36%
    20:00 +31°C° 0 mm 3 mps 757 mmHg 39%
    21:00 +30°C° 0 mm 3 mps 757 mmHg 41%
    22:00 +30°C° 0 mm 3 mps 757 mmHg 43%
    23:00 +29°C° 0 mm 3 mps 758 mmHg 44%

    Tomorrow, 22 November, Thursday

    Time Temperature Precipitation Wind Pressure Humidity
    00:00 +28°C° 0 mm 4 mps 758 mmHg 45%
    01:00 +28°C° 0 mm 4 mps 757 mmHg 46%
    02:00 +27°C° 0 mm 4 mps 757 mmHg 47%
    03:00 +27°C° 0 mm 4 mps 757 mmHg 47%
    04:00 +27°C° 0 mm 4 mps 757 mmHg 46%
    05:00 +26°C° 0 mm 4 mps 757 mmHg 46%
    06:00 +27°C° 0 mm 5 mps 758 mmHg 43%
    07:00 +28°C° 0 mm 5 mps 758 mmHg 41%
    08:00 +29°C° 0 mm 5 mps 759 mmHg 38%
    09:00 +33°C° 0 mm 5 mps 758 mmHg 34%
    10:00 +35°C° 0 mm 5 mps 758 mmHg 29%
    11:00 +37°C° 0 mm 5 mps 758 mmHg 24%
    12:00 +39°C° 0 mm 5 mps 757 mmHg 23%
    13:00 +40°C° 0 mm 4 mps 756 mmHg 21%
    14:00 +41°C° 0 mm 4 mps 755 mmHg 20%
    15:00 +39°C° 0 mm 3 mps 755 mmHg 22%
    16:00 +38°C° 0 mm 3 mps 755 mmHg 25%
    17:00 +37°C° 0 mm 3 mps 755 mmHg 27%
    18:00 +36°C° 0 mm 4 mps 756 mmHg 31%
    19:00 +34°C° 0 mm 4 mps 756 mmHg 34%
    20:00 +32°C° 0 mm 5 mps 757 mmHg 37%
    21:00 +30°C° 0 mm 6 mps 757 mmHg 40%
    22:00 +29°C° 0 mm 6 mps 757 mmHg 44%
    23:00 +29°C° 0 mm 6 mps 758 mmHg 47%

    Day after tomorrow, 23 November, Friday

    Time Temperature Precipitation Wind Pressure Humidity
    00:00 +28°C° 0 mm 6 mps 757 mmHg 47%
    01:00 +28°C° 0 mm 6 mps 757 mmHg 47%
    02:00 +27°C° 0 mm 6 mps 757 mmHg 47%
    03:00 +27°C° 0 mm 5 mps 757 mmHg 48%
    04:00 +27°C° 0 mm 5 mps 757 mmHg 49%
    05:00 +26°C° 0 mm 5 mps 757 mmHg 50%
    06:00 +27°C° 0 mm 5 mps 757 mmHg 48%
    07:00 +27°C° 0 mm 6 mps 758 mmHg 46%
    08:00 +28°C° 0 mm 6 mps 759 mmHg 45%
    09:00 +30°C° 0 mm 7 mps 759 mmHg 39%
    10:00 +33°C° 0 mm 7 mps 758 mmHg 33%
    11:00 +36°C° 0 mm 7 mps 758 mmHg 27%
    12:00 +38°C° 0 mm 7 mps 757 mmHg 25%
    13:00 +39°C° 0 mm 7 mps 756 mmHg 23%
    14:00 +40°C° 0 mm 7 mps 755 mmHg 21%
    15:00 +39°C° 0 mm 6 mps 755 mmHg 22%
    16:00 +37°C° 0 mm 5 mps 755 mmHg 23%
    17:00 +37°C° 0 mm 4 mps 755 mmHg 25%
    18:00 +35°C° 0 mm 4 mps 756 mmHg 27%
    19:00 +34°C° 0 mm 4 mps 756 mmHg 29%
    20:00 +32°C° 0 mm 4 mps 757 mmHg 31%
    21:00 +30°C° 0 mm 5 mps 757 mmHg 34%
    22:00 +29°C° 0 mm 5 mps 757 mmHg 38%
    23:00 +28°C° 0 mm 6 mps 757 mmHg 42%

    24 November, Saturday

    Time Temperature Precipitation Wind Pressure Humidity
    00:00 +28°C° 0 mm 6 mps 757 mmHg 40%
    01:00 +27°C° 0 mm 5 mps 756 mmHg 38%
    02:00 +27°C° 0 mm 5 mps 756 mmHg 36%
    03:00 +27°C° 0 mm 5 mps 756 mmHg 36%
    04:00 +26°C° 0 mm 5 mps 756 mmHg 36%
    05:00 +26°C° 0 mm 5 mps 756 mmHg 36%
    06:00 +27°C° 0 mm 5 mps 757 mmHg 35%
    07:00 +27°C° 0 mm 5 mps 757 mmHg 34%
    08:00 +28°C° 0 mm 6 mps 758 mmHg 33%
    09:00 +30°C° 0 mm 6 mps 758 mmHg 29%
    10:00 +34°C° 0 mm 5 mps 758 mmHg 26%
    11:00 +36°C° 0 mm 5 mps 758 mmHg 23%
    12:00 +37°C° 0 mm 5 mps 757 mmHg 21%
    13:00 +40°C° 0 mm 5 mps 756 mmHg 20%
    14:00 +41°C° 0 mm 4 mps 755 mmHg 18%
    15:00 +40°C° 0 mm 4 mps 755 mmHg 20%
    16:00 +38°C° 0 mm 3 mps 755 mmHg 22%
    17:00 +37°C° 0 mm 3 mps 755 mmHg 24%
    18:00 +36°C° 0 mm 3 mps 756 mmHg 26%
    19:00 +34°C° 0 mm 3 mps 756 mmHg 28%
    20:00 +33°C° 0 mm 3 mps 757 mmHg 30%
    21:00 +32°C° 0 mm 4 mps 757 mmHg 31%
    22:00 +32°C° 0 mm 4 mps 757 mmHg 32%
    23:00 +30°C° 0 mm 4 mps 757 mmHg 33%

    25 November, Sunday

    Time Temperature Precipitation Wind Pressure Humidity
    00:00 +30°C° 0 mm 4 mps 756 mmHg 34%
    01:00 +29°C° 0 mm 4 mps 756 mmHg 35%
    02:00 +28°C° 0 mm 4 mps 756 mmHg 36%
    03:00 +28°C° 0 mm 4 mps 756 mmHg 37%
    04:00 +27°C° 0 mm 3 mps 756 mmHg 38%
    05:00 +27°C° 0 mm 3 mps 756 mmHg 39%
    06:00 +27°C° 0 mm 4 mps 757 mmHg 38%
    07:00 +28°C° 0 mm 4 mps 757 mmHg 37%
    08:00 +29°C° 0 mm 4 mps 758 mmHg 36%
    09:00 +32°C° 0 mm 4 mps 758 mmHg 33%
    10:00 +35°C° 0 mm 5 mps 757 mmHg 29%
    11:00 +37°C° 0 mm 5 mps 757 mmHg 25%
    12:00 +38°C° 0 mm 4 mps 756 mmHg 23%
    13:00 +40°C° 0 mm 4 mps 756 mmHg 20%
    14:00 +41°C° 0 mm 4 mps 755 mmHg 18%
    15:00 +40°C° 0 mm 4 mps 755 mmHg 20%
    16:00 +38°C° 0 mm 3 mps 755 mmHg 22%
    17:00 +37°C° 0 mm 3 mps 755 mmHg 25%
    18:00 +36°C° 0 mm 4 mps 755 mmHg 27%
    19:00 +34°C° 0 mm 4 mps 756 mmHg 29%
    20:00 +33°C° 0 mm 4 mps 756 mmHg 31%
    21:00 +33°C° 0 mm 4 mps 756 mmHg 31%
    22:00 +32°C° 0 mm 5 mps 756 mmHg 30%
    23:00 +32°C° 0 mm 5 mps 756 mmHg 30%

    26 November, Monday

    Time Temperature Precipitation Wind Pressure Humidity
    00:00 +30°C° 0 mm 5 mps 756 mmHg 32%
    01:00 +29°C° 0 mm 4 mps 755 mmHg 33%
    02:00 +29°C° 0 mm 4 mps 755 mmHg 34%
    03:00 +28°C° 0 mm 4 mps 755 mmHg 35%
    04:00 +27°C° 0 mm 3 mps 755 mmHg 36%
    05:00 +27°C° 0 mm 3 mps 755 mmHg 37%
    06:00 +28°C° 0 mm 3 mps 756 mmHg 36%
    07:00 +28°C° 0 mm 4 mps 756 mmHg 35%
    08:00 +29°C° 0 mm 4 mps 757 mmHg 34%
    09:00 +32°C° 0 mm 4 mps 756 mmHg 31%
    10:00 +34°C° 0 mm 5 mps 756 mmHg 27%
    11:00 +35°C° 0 mm 5 mps 756 mmHg 23%
    12:00 +37°C° 0 mm 5 mps 755 mmHg 20%
    13:00 +39°C° 0 mm 5 mps 754 mmHg 17%
    14:00 +40°C° 0 mm 5 mps 754 mmHg 14%
    15:00 +40°C° 0 mm 4 mps 754 mmHg 15%
    16:00 +38°C° 0 mm 3 mps 754 mmHg 15%
    17:00 +37°C° 0 mm 2 mps 754 mmHg 16%
    18:00 +36°C° 0 mm 2 mps 754 mmHg 17%
    19:00 +34°C° 0 mm 3 mps 755 mmHg 17%
    20:00 +33°C° 0 mm 3 mps 755 mmHg 18%
    21:00 +31°C° 0 mm 3 mps 755 mmHg 18%
    22:00 +31°C° 0 mm 3 mps 755 mmHg 19%
    23:00 +30°C° 0 mm 3 mps 755 mmHg 19%
    Show more